H1 CPF 2 NER 2025 10 5 9 278 01 glonass140 H2 1903001 9140 44299 2025 10 5 0 0 0 2025 10 8 23 45 0 900 1 1 0 0 0 1 H9 10 0 60953 0.00000 0 21739970.291 7948324.425 -10704003.165 10 0 60953 900.00000 0 20264806.518 7694331.477 -13429760.074 10 0 60953 1800.00000 0 18455411.637 7539502.677 -15894379.416 10 0 60953 2700.00000 0 16355015.813 7527237.983 -18049851.826 10 0 60953 3600.00000 0 14016442.307 7692466.234 -19854165.117 10 0 60953 4500.00000 0 11500084.514 8059985.013 -21272130.533 10 0 60953 5400.00000 0 8871576.503 8643240.329 -22276075.949 10 0 60953 6300.00000 0 6199253.935 9443599.016 -22846392.099 10 0 60953 7200.00000 0 3551511.156 10450145.875 -22971920.772 10 0 60953 8100.00000 0 994164.607 11640015.342 -22650177.085 10 0 60953 9000.00000 0 -1412067.522 12979244.733 -21887401.230 10 0 60953 9900.00000 0 -3613864.357 14424113.930 -20698438.428 10 0 60953 10800.00000 0 -5567284.434 15922915.620 -19106449.267 10 0 60953 11700.00000 0 -7239348.501 17418081.809 -17142455.952 10 0 60953 12600.00000 0 -8609157.568 18848577.015 -14844733.345 10 0 60953 13500.00000 0 -9668500.466 20152457.046 -12258056.861 10 0 60953 14400.00000 0 -10421926.825 21269485.151 -9432822.250 10 0 60953 15300.00000 0 -10886284.066 22143694.678 -6424055.012 10 0 60953 16200.00000 0 -11089739.815 22725789.713 -3290329.533 10 0 60953 17100.00000 0 -11070332.989 22975282.044 -92619.886 10 0 60953 18000.00000 0 -10874116.723 22862274.111 3106894.311 10 0 60953 18900.00000 0 -10552973.532 22368812.807 6246042.816 10 0 60953 19800.00000 0 -10162196.717 21489757.349 9263876.060 10 0 60953 20700.00000 0 -9757941.560 20233125.170 12101848.709 10 0 60953 21600.00000 0 -9394654.947 18619901.889 14704952.321 10 0 60953 22500.00000 0 -9122592.356 16683323.951 17022775.357 10 0 60953 23400.00000 0 -8985527.024 14467664.508 19010470.536 10 0 60953 24300.00000 0 -9018747.455 12026573.618 20629611.774 10 0 60953 25200.00000 0 -9247426.952 9421041.957 21848925.341 10 0 60953 26100.00000 0 -9685433.023 6717072.470 22644882.404 10 0 60953 27000.00000 0 -10334626.004 3983155.941 23002142.893 10 0 60953 27900.00000 0 -11184675.868 1287654.055 22913843.273 10 0 60953 28800.00000 0 -12213404.805 -1303802.976 22381723.609 10 0 60953 29700.00000 0 -13387641.481 -3730798.092 21416091.994 10 0 60953 30600.00000 0 -14664551.913 -5940387.298 20035627.139 10 0 60953 31500.00000 0 -15993392.259 -7889045.817 18267022.631 10 0 60953 32400.00000 0 -17317611.389 -9544221.292 16144479.012 10 0 60953 33300.00000 0 -18577216.549 -10885430.788 13709052.465 10 0 60953 34200.00000 0 -19711304.172 -11904856.866 11007871.540 10 0 60953 35100.00000 0 -20660650.788 -12607418.590 8093235.818 10 0 60953 36000.00000 0 -21370255.971 -13010314.862 5021612.793 10 0 60953 36900.00000 0 -21791730.619 -13142059.291 1852551.474 10 0 60953 37800.00000 0 -21885430.002 -13041047.191 -1352466.925 10 0 60953 38700.00000 0 -21622240.953 -12753714.831 -4531219.284 10 0 60953 39600.00000 0 -20984946.852 -12332368.536 -7621948.784 10 0 60953 40500.00000 0 -19969111.504 -11832775.353 -10564567.319 10 0 60953 41400.00000 0 -18583443.000 -11311617.286 -13301828.294 10 0 60953 42300.00000 0 -16849620.499 -10823917.161 -15780446.377 10 0 60953 43200.00000 0 -14801589.400 -10420545.587 -17952141.766 10 0 60953 44100.00000 0 -12484352.876 -10145915.258 -19774588.026 10 0 60953 45000.00000 0 -9952309.068 -10035961.008 -21212244.364 10 0 60953 45900.00000 0 -7267202.393 -10116492.011 -22237055.672 10 0 60953 46800.00000 0 -4495773.774 -10401986.799 -22829006.209 10 0 60953 47700.00000 0 -1707207.336 -10894882.970 -22976515.771 10 0 60953 48600.00000 0 1029520.236 -11585392.546 -22676670.283 10 0 60953 49500.00000 0 3648277.405 -12451851.528 -21935282.052 10 0 60953 50400.00000 0 6088292.667 -13461589.569 -20766778.222 10 0 60953 51300.00000 0 8296441.915 -14572283.428 -19193919.430 10 0 60953 52200.00000 0 10229213.173 -15733737.335 -17247354.024 10 0 60953 53100.00000 0 11854267.070 -16890014.981 -14965016.537 10 0 60953 54000.00000 0 13151528.621 -17981832.895 -12391382.350 10 0 60953 54900.00000 0 14113765.701 -18949113.616 -9576593.386 10 0 60953 55800.00000 0 14746631.345 -19733590.224 -6575472.513 10 0 60953 56700.00000 0 15068169.861 -20281351.569 -3446446.611 10 0 60953 57600.00000 0 15107809.451 -20545220.073 -250400.158 10 0 60953 58500.00000 0 14904885.868 -20486861.221 2950517.291 10 0 60953 59400.00000 0 14506761.365 -20078535.441 6094105.622 10 0 60953 60300.00000 0 13966620.205 -19304418.438 9119326.267 10 0 60953 61200.00000 0 13341035.347 -18161434.529 11967487.722 10 0 60953 62100.00000 0 12687410.154 -16659568.274 14583381.297 10 0 60953 63000.00000 0 12061403.752 -14821641.695 16916345.226 10 0 60953 63900.00000 0 11514448.728 -12682566.835 18921237.053 10 0 60953 64800.00000 0 11091465.482 -10288105.117 20559296.406 10 0 60953 65700.00000 0 10828868.703 -7693185.231 21798882.676 10 0 60953 66600.00000 0 10752948.914 -4959849.275 22616074.639 10 0 60953 67500.00000 0 10878696.051 -2154911.778 22995121.814 10 0 60953 68400.00000 0 11209113.595 652572.363 22928740.033 10 0 60953 69300.00000 0 11735051.348 3393927.435 22418246.455 10 0 60953 70200.00000 0 12435563.635 6003457.070 21473531.969 10 0 60953 71100.00000 0 13278778.026 8420919.107 20112871.667 10 0 60953 72000.00000 0 14223238.745 10593774.274 18362576.729 10 0 60953 72900.00000 0 15219669.301 12479117.062 16256493.764 10 0 60953 73800.00000 0 16213081.525 14045209.956 13835360.257 10 0 60953 74700.00000 0 17145143.608 15272558.258 11146027.426 10 0 60953 75600.00000 0 17956708.729 16154481.407 8240564.280 10 0 60953 76500.00000 0 18590398.678 16697157.313 5175259.026 10 0 60953 77400.00000 0 18993134.299 16919138.121 2009536.263 10 0 60953 78300.00000 0 19118506.034 16850357.490 -1195189.751 10 0 60953 79200.00000 0 18928884.047 16530670.966 -4376703.946 10 0 60953 80100.00000 0 18397178.144 16007990.824 -7473198.291 10 0 60953 81000.00000 0 17508171.819 15336093.873 -10424475.026 10 0 60953 81900.00000 0 16259372.546 14572194.781 -13173121.429 10 0 60953 82800.00000 0 14661340.646 13774387.620 -15665632.658 10 0 60953 83700.00000 0 12737480.910 12999064.070 -17853460.202 10 0 60953 84600.00000 0 10523303.810 12298417.900 -19693964.859 10 0 60953 85500.00000 0 8065185.620 11718141.835 -21151255.084 10 0 60954 0.00000 0 5418678.100 11295414.819 -22196893.766 10 0 60954 900.00000 0 2646435.790 11057265.244 -22810459.713 10 0 60954 1800.00000 0 -184149.801 11019380.453 -22979951.181 10 0 60954 2700.00000 0 -3003515.722 11185412.668 -22702025.167 10 0 60954 3600.00000 0 -5742582.737 11546811.733 -21982065.970 10 0 60954 4500.00000 0 -8335391.002 12083191.841 -20834082.104 10 0 60954 5400.00000 0 -10721606.287 12763216.959 -19280433.258 10 0 60954 6300.00000 0 -12848792.422 13545967.552 -17351392.471 10 0 60954 7200.00000 0 -14674355.319 14382730.595 -15084552.098 10 0 60954 8100.00000 0 -16167077.887 15219136.796 -12524085.295 10 0 60954 9000.00000 0 -17308182.366 15997554.032 -9719877.726 10 0 60954 9900.00000 0 -18091876.639 16659635.037 -6726547.032 10 0 60954 10800.00000 0 -18525363.057 17148910.754 -3602369.890 10 0 60954 11700.00000 0 -18628311.073 17413318.864 -408138.470 10 0 60954 12600.00000 0 -18431817.784 17407559.892 2794030.451 10 0 60954 13500.00000 0 -17976902.162 17095180.762 5941909.576 10 0 60954 14400.00000 0 -17312598.330 16450297.533 8974373.956 10 0 60954 15300.00000 0 -16493729.998 15458884.564 11832588.478 10 0 60954 16200.00000 0 -15578461.234 14119575.901 14461146.659 10 0 60954 17100.00000 0 -14625727.682 12443945.442 16809138.819 10 0 60954 18000.00000 0 -13692656.801 10456254.321 18831129.466 10 0 60954 18900.00000 0 -12832085.541 8192676.274 20488025.859 10 0 60954 19800.00000 0 -12090279.194 5700033.226 21747822.162 10 0 60954 20700.00000 0 -11504946.274 3034093.487 22586206.098 10 0 60954 21600.00000 0 -11103631.545 257502.629 22987017.780 10 0 60954 22500.00000 0 -10902553.356 -2562568.064 22942553.032 10 0 60954 23400.00000 0 -10905932.934 -5356959.409 22453706.330 10 0 60954 24300.00000 0 -11105842.927 -8057144.805 21529951.164 10 0 60954 25200.00000 0 -11482581.098 -10597826.585 20189158.360 10 0 60954 26100.00000 0 -12005553.509 -12919402.345 18457255.598 10 0 60954 27000.00000 0 -12634630.506 -14970200.619 16367734.014 10 0 60954 27900.00000 0 -13321919.336 -16708394.486 13961010.444 10 0 60954 28800.00000 0 -14013879.779 -18103514.604 11283656.440 10 0 60954 29700.00000 0 -14653694.763 -19137499.395 8387507.774 10 0 60954 30600.00000 0 -15183796.977 -19805238.963 5328670.442 10 0 60954 31500.00000 0 -15548445.569 -20114590.117 2166441.511 10 0 60954 32400.00000 0 -15696244.360 -20085861.667 -1037835.013 10 0 60954 33300.00000 0 -15582495.091 -19750791.408 -4221955.481 10 0 60954 34200.00000 0 -15171285.463 -19151057.375 -7324064.092 10 0 60954 35100.00000 0 -14437222.650 -18336385.862 -10283856.865 10 0 60954 36000.00000 0 -13366737.688 -17362335.849 -13043758.314 10 0 60954 36900.00000 0 -11958903.740 -16287853.174 -15550047.300 10 0 60954 37800.00000 0 -10225731.796 -15172697.838 -17753909.548 10 0 60954 38700.00000 0 -8191929.351 -14074853.288 -19612395.664 10 0 60954 39600.00000 0 -5894130.157 -13048027.403 -21089265.435 10 0 60954 40500.00000 0 -3379625.626 -12139351.111 -22155701.399 10 0 60954 41400.00000 0 -704649.414 -11387372.167 -22790877.392 10 0 60954 42300.00000 0 2067714.289 -10820429.179 -22982370.559 10 0 60954 43200.00000 0 4869912.326 -10455474.794 -22726408.512 10 0 60954 44100.00000 0 7632495.272 -10297397.895 -22027946.506 10 0 60954 45000.00000 0 10286774.284 -10338873.518 -20900572.867 10 0 60954 45900.00000 0 12767451.500 -10560746.685 -19366244.297 10 0 60954 46800.00000 0 15015114.363 -10932933.680 -17454856.091 10 0 60954 47700.00000 0 16978489.830 -11415802.199 -15203655.625 10 0 60954 48600.00000 0 18616364.504 -11961971.361 -12656510.687 10 0 60954 49500.00000 0 19899090.840 -12518454.616 -9863047.253 10 0 60954 50400.00000 0 20809617.015 -13029053.910 -6877674.071 10 0 60954 51300.00000 0 21343998.348 -13436902.749 -3758513.814 10 0 60954 52200.00000 0 21511370.161 -13687049.515 -566262.488 10 0 60954 53100.00000 0 21333384.841 -13728970.751 2636999.666 10 0 60954 54000.00000 0 20843138.611 -13518907.356 5789021.699 10 0 60954 54900.00000 0 20083635.034 -13021924.368 8828595.477 10 0 60954 55800.00000 0 19105851.691 -12213607.066 11696745.024 10 0 60954 56700.00000 0 17966492.925 -11081321.739 14337868.291 10 0 60954 57600.00000 0 16725524.300 -9624988.143 16700809.393 10 0 60954 58500.00000 0 15443593.095 -7857331.272 18739840.964 10 0 60954 59400.00000 0 14179443.274 -5803601.995 20415538.552 10 0 60954 60300.00000 0 12987432.997 -3500778.138 21695531.292 10 0 60954 61200.00000 0 11915257.882 -996279.034 22555115.646 10 0 60954 62100.00000 0 11001974.175 1653753.551 22977721.732 10 0 60954 63000.00000 0 10276403.183 4386537.663 22955224.458 10 0 60954 63900.00000 0 9755982.341 7135011.364 22488094.422 10 0 60954 64800.00000 0 9446109.735 9830374.590 21585386.264 10 0 60954 65700.00000 0 9340008.548 12404708.968 20264564.882 10 0 60954 66600.00000 0 9419116.531 14793568.699 18551172.603 10 0 60954 67500.00000 0 9653984.000 16938436.664 16478343.085 10 0 60954 68400.00000 0 10005642.902 18788945.205 14086170.348 10 0 60954 69300.00000 0 10427389.939 20304770.334 11420943.992 10 0 60954 70200.00000 0 10866909.422 21457121.204 8534264.131 10 0 60954 71100.00000 0 11268647.137 22229763.178 5482052.017 10 0 60954 72000.00000 0 11576335.708 22619531.708 2323474.557 10 0 60954 72900.00000 0 11735565.116 22636315.306 -880197.146 10 0 60954 73800.00000 0 11696289.726 22302507.878 -4066773.525 10 0 60954 74700.00000 0 11415165.268 21651952.920 -7174353.561 10 0 60954 75600.00000 0 10857616.134 20728423.565 -10142529.457 10 0 60954 76500.00000 0 9999544.199 19583702.060 -12913565.157 10 0 60954 77400.00000 0 8828605.359 18275339.311 -15433525.170 10 0 60954 78300.00000 0 7344997.980 16864188.828 -17653331.138 10 0 60954 79200.00000 0 5561727.897 15411818.966 -19529724.910 10 0 60954 80100.00000 0 3504336.773 13977912.752 -21026118.793 10 0 60954 81000.00000 0 1210103.234 12617765.056 -22113315.863 10 0 60954 81900.00000 0 -1273251.528 11379982.816 -22770085.895 10 0 60954 82800.00000 0 -3889300.984 10304485.382 -22983585.263 10 0 60954 83700.00000 0 -6575021.881 9420889.378 -22749612.343 10 0 60954 84600.00000 0 -9263187.037 8747346.062 -22072693.111 10 0 60954 85500.00000 0 -11884942.930 8289880.079 -20965995.043 10 0 60955 0.00000 0 -14372464.591 8042257.110 -19451070.908 10 0 60955 900.00000 0 -16661578.382 7986385.412 -17557436.448 10 0 60955 1800.00000 0 -18694239.806 8093233.821 -15321992.246 10 0 60955 2700.00000 0 -20420767.243 8324226.107 -12788298.496 10 0 60955 3600.00000 0 -21801734.950 8633052.042 -10005719.033 10 0 60955 4500.00000 0 -22809447.730 8967817.168 -7028451.132 10 0 60955 5400.00000 0 -23428935.843 9273439.070 -3914460.812 10 0 60955 6300.00000 0 -23658429.378 9494187.437 -724345.259 10 0 60955 7200.00000 0 -23509293.397 9576259.171 2479854.470 10 0 60955 8100.00000 0 -23005428.094 9470278.569 5635866.392 10 0 60955 9000.00000 0 -22182160.881 9133615.998 8682401.778 10 0 60955 9900.00000 0 -21084678.637 8532426.531 11560346.314 10 0 60955 10800.00000 0 -19766067.582 7643322.236 14213904.838 10 0 60955 11700.00000 0 -18285044.376 6454607.528 16591677.565 10 0 60955 12600.00000 0 -16703474.513 4967025.681 18647647.390 10 0 60955 13500.00000 0 -15083782.429 3193985.213 20342060.036 10 0 60955 14400.00000 0 -13486361.579 1161256.579 21642181.204 10 0 60955 15300.00000 0 -11967092.176 -1093848.351 22522917.349 10 0 60955 16200.00000 0 -10575069.240 -3523780.393 22967289.496 10 0 60955 17100.00000 0 -9350634.387 -6072487.290 22966752.169 10 0 60955 18000.00000 0 -8323792.047 -8677507.173 22521352.247 10 0 60955 18900.00000 0 -7513074.648 -11272335.754 21639725.307 10 0 60955 19800.00000 0 -6924902.832 -13788970.678 20338929.738 10 0 60955 20700.00000 0 -6553466.380 -16160529.105 18644121.566 10 0 60955 21600.00000 0 -6381130.135 -18323831.496 16588075.658 10 0 60955 22500.00000 0 -6379347.641 -20221845.733 14210561.570 10 0 60955 23400.00000 0 -6510044.194 -21805890.947 11557584.963 10 0 60955 24300.00000 0 -6727411.526 -23037510.136 8680508.037 10 0 60955 25200.00000 0 -6980039.021 -23889933.805 5635064.804 10 0 60955 26100.00000 0 -7213292.073 -24349073.382 2480289.324 10 0 60955 27000.00000 0 -7371837.521 -24414002.629 -722623.052 10 0 60955 27900.00000 0 -7402209.453 -24096906.170 -3911499.801 10 0 60955 28800.00000 0 -7255306.549 -23422496.635 -7024397.755 10 0 60955 29700.00000 0 -6888714.637 -22426924.285 -10000808.429 10 0 60955 30600.00000 0 -6268755.121 -21156224.284 -12782838.341 10 0 60955 31500.00000 0 -5372171.212 -19664366.441 -15316340.736 10 0 60955 32400.00000 0 -4187378.944 -18010989.119 -17551976.108 10 0 60955 33300.00000 0 -2715228.231 -16258912.438 -19446180.243 10 0 60955 34200.00000 0 -969239.831 -14471535.402 -20962020.306 10 0 60955 35100.00000 0 1024693.796 -12710226.439 -22069921.809 10 0 60955 36000.00000 0 3229133.093 -11031817.170 -22748251.860 10 0 60955 36900.00000 0 5596408.597 -9486304.859 -22983746.917 10 0 60955 37800.00000 0 8070376.968 -8114860.108 -22771776.426 10 0 60955 38700.00000 0 10588543.478 -6948223.420 -22116436.885 10 0 60955 39600.00000 0 13084462.965 -6005557.801 -21030474.223 10 0 60955 40500.00000 0 15490319.301 -5293805.181 -19535035.822 10 0 60955 41400.00000 0 17739575.773 -4807573.039 -17659256.815 10 0 60955 42300.00000 0 19769585.471 -4529555.153 -15439688.713 10 0 60955 43200.00000 0 21524052.383 -4431467.549 -12919581.625 10 0 60955 44100.00000 0 22955240.061 -4475458.892 -10148034.327 10 0 60955 45000.00000 0 24025835.311 -4615934.218 -7179029.306 10 0 60955 45900.00000 0 24710389.002 -4801713.409 -4070372.300 10 0 60955 46800.00000 0 24996274.065 -4978431.512 -882557.841 10 0 60955 47700.00000 0 24884121.280 -5091077.890 2322416.098 10 0 60955 48600.00000 0 24387715.693 -5086565.415 5482260.322 10 0 60955 49500.00000 0 23533359.379 -4916219.987 8535609.096 10 0 60955 50400.00000 0 22358728.802 -4538084.327 11423213.018 10 0 60955 51300.00000 0 20911276.188 -3918938.278 14089086.634 10 0 60955 52200.00000 0 19246243.280 -3035950.179 16481588.600 10 0 60955 53100.00000 0 17424371.660 -1877889.745 18554413.917 10 0 60955 54000.00000 0 15509406.042 -445851.542 20267479.858 10 0 60955 54900.00000 0 13565494.910 1246541.283 21587689.597 10 0 60955 55800.00000 0 11654596.613 3173461.655 22489560.068 10 0 60955 56700.00000 0 9833998.134 5297718.428 22955703.286 10 0 60955 57600.00000 0 8154048.611 7572077.113 22977153.080 10 0 60955 58500.00000 0 6656200.480 9941007.484 22553531.920 10 0 60955 59400.00000 0 5371438.135 12342786.680 21693055.274 10 0 60955 60300.00000 0 4319157.988 14711871.935 20412373.625 10 0 60955 61200.00000 0 3506545.233 16981445.964 18736254.987 10 0 60955 62100.00000 0 2928472.232 19086030.810 16697113.435 10 0 60955 63000.00000 0 2567922.026 20964062.934 14334391.812 10 0 60955 63900.00000 0 2396918.885 22560323.499 11693809.385 10 0 60955 64800.00000 0 2377926.788 23828123.347 8826487.806 10 0 60955 65700.00000 0 2465657.185 24731151.844 5787971.061 10 0 60955 66600.00000 0 2609210.213 25244912.441 2637157.483 10 0 60955 67500.00000 0 2754459.273 25357684.341 -564836.257 10 0 60955 68400.00000 0 2846578.305 25070969.179 -3755857.595 10 0 60955 69300.00000 0 2832604.760 24399403.327 -6873924.015 10 0 60955 70200.00000 0 2663929.297 23370138.381 -9858428.984 10 0 60955 71100.00000 0 2298606.014 22021715.074 -12651323.996 10 0 60955 72000.00000 0 1703384.298 20402477.106 -15198253.164 10 0 60955 72900.00000 0 855374.837 18568590.864 -17449617.702 10 0 60955 73800.00000 0 -256722.342 16581753.763 -19361548.915 10 0 60955 74700.00000 0 -1631881.538 14506687.220 -20896770.166 10 0 60955 75600.00000 0 -3256539.730 12408519.328 -22025330.501 10 0 60955 76500.00000 0 -5104920.437 10350167.038 -22725195.214 10 0 60955 77400.00000 0 -7139881.278 8389827.638 -22982681.445 10 0 60955 78300.00000 0 -9314251.148 6578684.679 -22792730.002 10 0 60955 79200.00000 0 -11572602.264 4958924.396 -22159007.820 10 0 60955 80100.00000 0 -13853383.699 3562145.548 -21093838.807 10 0 60955 81000.00000 0 -16091327.680 2408228.894 -19617964.179 10 0 60955 81900.00000 0 -18220028.168 1504713.047 -17760136.824 10 0 60955 82800.00000 0 -20174583.701 846701.991 -15556557.542 10 0 60955 83700.00000 0 -21894193.641 417306.909 -13050164.250 10 0 60955 84600.00000 0 -23324598.721 188602.270 -10289788.303 10 0 60955 85500.00000 0 -24420263.295 123054.224 -7329194.848 10 0 60956 0.00000 0 -25146207.545 175359.240 -4226026.947 10 0 60956 900.00000 0 -25479413.187 294613.550 -1040673.158 10 0 60956 1800.00000 0 -25409743.106 426719.830 2164914.173 10 0 60956 2700.00000 0 -24940338.345 516927.883 5328431.478 10 0 60956 3600.00000 0 -24087475.661 512400.452 8388438.864 10 0 60956 4500.00000 0 -22879893.300 364694.685 11285554.659 10 0 60956 5400.00000 0 -21357614.436 32053.739 13963605.840 10 0 60956 6300.00000 0 -19570318.777 -518588.542 16370712.083 10 0 60956 7200.00000 0 -17575331.504 -1309974.446 18460282.846 10 0 60956 8100.00000 0 -15435314.233 -2353329.336 20191908.994 10 0 60956 9000.00000 0 -13215754.580 -3647658.692 21532132.863 10 0 60956 9900.00000 0 -10982358.726 -5179564.663 22455083.150 10 0 60956 10800.00000 0 -8798454.734 -6923589.955 22942963.723 10 0 60956 11700.00000 0 -6722513.458 -8843075.119 22986388.169 10 0 60956 12600.00000 0 -4805888.605 -10891494.248 22584554.605 10 0 60956 13500.00000 0 -3090868.175 -13014214.484 21745258.073 10 0 60956 14400.00000 0 -1609116.572 -15150607.473 20484740.490 10 0 60956 15300.00000 0 -380570.624 -17236426.353 18827380.863 10 0 60956 16200.00000 0 587165.910 -19206350.898 16805231.172 10 0 60956 17100.00000 0 1298905.115 -20996596.288 14457405.929 10 0 60956 18000.00000 0 1771432.255 -22547477.950 11829336.108 10 0 60956 18900.00000 0 2032556.570 -23805826.344 8971900.640 10 0 60956 19800.00000 0 2119695.500 -24727151.265 5940451.109 10 0 60956 20700.00000 0 2078051.808 -25277465.181 2793747.564 10 0 60956 21600.00000 0 1958460.263 -25434688.794 -407174.700 10 0 60956 22500.00000 0 1814994.672 -25189579.203 -3600185.839 10 0 60956 23400.00000 0 1702436.480 -24546140.577 -6723266.830 10 0 60956 24300.00000 0 1673712.357 -23521498.974 -9715715.953 10 0 60956 25200.00000 0 1777409.778 -22145245.504 -12519332.532 10 0 60956 26100.00000 0 2055476.705 -20458274.166 -15079554.363 10 0 60956 27000.00000 0 2541203.908 -18511162.248 -17346526.074 10 0 60956 27900.00000 0 3257576.666 -16362160.483 -19276077.008 10 0 60956 28800.00000 0 4216067.204 -14074876.669 -20830588.973 10 0 60956 29700.00000 0 5415920.517 -11715749.506 -21979736.463 10 0 60956 30600.00000 0 6843965.496 -9351418.203 -22701084.486 10 0 60956 31500.00000 0 8474960.979 -7046097.905 -22980531.960 10 0 60956 32400.00000 0 10272463.708 -4859070.642 -22812591.731 10 0 60956 33300.00000 0 12190183.037 -2842396.610 -22200501.433 10 0 60956 34200.00000 0 14173766.516 -1038941.374 -21156162.794 10 0 60956 35100.00000 0 16162942.090 519198.900 -19699910.318 10 0 60956 36000.00000 0 18093927.422 1811808.853 -17860113.690 10 0 60956 36900.00000 0 19902005.271 2831156.268 -15672621.609 10 0 60956 37800.00000 0 21524156.654 3582061.244 -13180057.983 10 0 60956 38700.00000 0 22901640.907 4081430.769 -10430984.452 10 0 60956 39600.00000 0 23982413.842 4357279.953 -7478946.106 10 0 60956 40500.00000 0 24723282.029 4447283.050 -4381419.651 10 0 60956 41400.00000 0 25091702.469 4396917.358 -1198685.373 10 0 60956 42300.00000 0 25067152.007 4257280.334 2007354.148 10 0 60956 43200.00000 0 24642009.229 4082673.963 5174384.634 10 0 60956 44100.00000 0 23821912.392 3928060.076 8240895.611 10 0 60956 45000.00000 0 22625579.157 3846495.432 11147376.522 10 0 60956 45900.00000 0 21084096.663 3886655.819 13837469.884 10 0 60956 46800.00000 0 19239712.667 4090554.165 16259059.163 10 0 60956 47700.00000 0 17144179.209 4491549.050 18365270.667 10 0 60956 48600.00000 0 14856718.633 5112727.366 20115370.863 10 0 60956 49500.00000 0 12441697.012 5965728.861 21475542.873 10 0 60956 50400.00000 0 9966101.766 7050061.635 22419528.380 10 0 60956 51300.00000 0 7496927.682 8352937.135 22929123.924 10 0 60956 52200.00000 0 5098578.886 9849631.661 22994523.238 10 0 60956 53100.00000 0 2830393.199 11504359.679 22614500.045 10 0 60956 54000.00000 0 744389.953 13271623.246 21796428.453 10 0 60956 54900.00000 0 -1116667.023 15097982.353 20556140.846 10 0 60956 55800.00000 0 -2720812.481 16924173.654 18917625.827 10 0 60956 56700.00000 0 -4047966.332 18687490.667 16912571.471 10 0 60956 57600.00000 0 -5090519.715 20324327.581 14579761.816 10 0 60956 58500.00000 0 -5853397.089 21772781.701 11964337.110 10 0 60956 59400.00000 0 -6353592.361 22975206.694 9116930.924 10 0 60956 60300.00000 0 -6619198.837 23880610.481 6092699.638 10 0 60956 61200.00000 0 -6687973.830 24446797.433 2950262.112 10 0 60956 62100.00000 0 -6605498.250 24642164.700 -249430.666 10 0 60956 63000.00000 0 -6423008.735 24447076.570 -3444274.511 10 0 60956 63900.00000 0 -6194993.840 23854757.974 -6572216.752 10 0 60956 64800.00000 0 -5976656.109 22871668.395 -9572463.203 10 0 60956 65700.00000 0 -5821347.788 21517338.995 -12386663.557 10 0 60956 66600.00000 0 -5778089.361 19823678.452 -14960051.605 10 0 60956 67500.00000 0 -5889276.801 17833775.323 -17242517.447 10 0 60956 68400.00000 0 -6188675.712 15600245.970 -19189590.272 10 0 60956 69300.00000 0 -6699788.480 13183196.436 -20763311.912 10 0 60956 70200.00000 0 -7434664.894 10647882.944 -21932983.666 10 0 60956 71100.00000 0 -8393207.923 8062168.405 -22675771.394 10 0 60956 72000.00000 0 -9563005.414 5493880.998 -22977156.701 10 0 60956 72900.00000 0 -10919696.193 3008184.987 -22831225.096 10 0 60956 73800.00000 0 -12427856.358 665073.423 -22240785.223 10 0 60956 74700.00000 0 -14042369.450 -1482912.735 -21217316.568 10 0 60956 75600.00000 0 -15710223.577 -3392644.102 -19780746.439 10 0 60956 76500.00000 0 -17372660.326 -5031959.565 -17959060.416 10 0 60956 77400.00000 0 -18967585.197 -6380755.793 -15787753.775 10 0 60956 78300.00000 0 -20432138.000 -7431564.951 -13309134.701 10 0 60956 79200.00000 0 -21705314.729 -8189597.747 -10571493.088 10 0 60956 80100.00000 0 -22730530.044 -8672251.570 -7628151.654 10 0 60956 81000.00000 0 -23458011.997 -8908106.303 -4536418.491 10 0 60956 81900.00000 0 -23846927.716 -8935452.096 -1356462.329 10 0 60956 82800.00000 0 -23867150.278 -8800413.233 1849866.638 10 0 60956 83700.00000 0 -23500592.376 -8554749.293 5020246.424 10 0 60956 84600.00000 0 -22742050.876 -8253428.236 8093099.083 10 0 60956 85500.00000 0 -21599527.245 -7952075.419 11008788.308 99